GW3385 Weather Reports


time (UTC)temp
C
wind
direction
speed
KPH
gust
KPH
rain 1hr
cm
rain 24hr
cm
rain mn
cm
humidity
%
barometer
mb
20260905032055 20 0 0.0 4.8 0.00 0.00 0.00 84 1011.4
20260905031556 20 0 0.0 6.4 0.00 0.00 0.00 85 1011.3
20260905031056 20 236 0.0 6.4 0.00 0.00 0.00 84 1011.3
20260905030555 20 216 1.6 6.4 0.00 0.00 0.00 84 1011.2
20260905030117 20 0 0.0 3.2 0.00 0.00 0.00 84 1011.2
20260905025555 20 0 0.0 6.4 0.00 0.00 0.00 84 1011.1
20260905025056 20 0 1.6 9.7 0.00 0.00 0.00 84 1011.1
20260905024606 20 265 0.0 11.3 0.00 0.00 0.00 84 1011.1
20260905024056 20 276 4.8 16.1 0.00 0.00 0.00 84 1011.1
20260905023600 20 242 4.8 16.1 0.00 0.00 0.00 84 1011.1
20260905023101 20 269 11.3 16.1 0.00 0.00 0.00 83 1011.1
20260905022555 20 262 9.7 14.5 0.00 0.00 0.00 83 1011.2
20260905022055 21 294 3.2 12.9 0.00 0.00 0.00 82 1011.2
20260905021556 21 286 6.4 14.5 0.00 0.00 0.00 82 1011.2
20260905021055 21 158 1.6 16.1 0.00 0.00 0.00 81 1011.1
20260905020555 21 175 6.4 17.7 0.00 0.00 0.00 81 1011.2
20260905020107 21 276 9.7 17.7 0.00 0.00 0.00 80 1011.2
20260905015555 21 262 8.0 17.7 0.00 0.00 0.00 81 1011.2
20260905015056 21 264 6.4 16.1 0.00 0.00 0.00 81 1011.3
20260905014604 21 0 8.0 16.1 0.00 0.00 0.00 81 1011.4
20260905014056 21 325 4.8 16.1 0.00 0.00 0.00 80 1011.3
20260905013555 21 256 11.3 16.1 0.00 0.00 0.00 78 1011.4
20260905013059 21 244 6.4 16.1 0.00 0.00 0.00 78 1011.4
20260905012558 22 267 8.0 16.1 0.00 0.00 0.00 78 1011.3
20260905012058 22 292 9.7 16.1 0.00 0.00 0.00 76 1011.4
20260905011558 22 248 4.8 17.7 0.00 0.00 0.00 78 1011.5
20260905011055 22 275 6.4 17.7 0.00 0.00 0.00 78 1011.5
20260905010559 22 318 8.0 17.7 0.00 0.00 0.00 76 1011.6
20260905005556 22 203 6.4 17.7 0.00 0.00 0.00 75 1011.7
20260905005056 22 269 8.0 17.7 0.00 0.00 0.00 73 1011.7
20260905004609 22 167 8.0 17.7 0.00 0.00 0.00 73 1011.7
20260905004056 22 198 6.4 17.7 0.00 0.00 0.00 74 1011.6
20260905003556 22 175 4.8 14.5 0.00 0.00 0.00 73 1011.6
20260905003102 23 282 8.0 19.3 0.00 0.00 0.00 73 1011.5
20260905002555 23 285 3.2 19.3 0.00 0.00 0.00 74 1011.5
20260905002056 23 271 6.4 16.1 0.00 0.00 0.00 73 1011.4
20260905001608 23 264 8.0 17.7 0.00 0.00 0.00 74 1011.4
20260905001055 23 131 8.0 17.7 0.00 0.00 0.00 72 1011.4
20260905000556 23 214 6.4 17.7 0.00 0.00 0.00 73 1011.5
20260905000108 23 211 4.8 19.3 0.00 0.00 0.00 72 1011.4
20260904235555 23 171 6.4 19.3 0.00 0.00 0.00 72 1011.4
20260904235057 23 275 6.4 19.3 0.00 0.00 0.00 72 1011.4
20260904234608 23 213 6.4 16.1 0.00 0.00 0.00 71 1011.5
20260904234056 23 194 6.4 16.1 0.00 0.00 0.00 72 1011.5
20260904233556 23 245 4.8 19.3 0.00 0.00 0.00 71 1011.5
20260904233059 23 292 8.0 19.3 0.00 0.00 0.00 71 1011.6
20260904232556 23 135 4.8 14.5 0.00 0.00 0.00 71 1011.5
20260904232056 23 202 8.0 19.3 0.00 0.00 0.00 71 1011.4
20260904231602 23 225 6.4 19.3 0.00 0.00 0.00 72 1011.5
20260904231055 23 303 11.3 19.3 0.00 0.00 0.00 71 1011.5
20260904230559 23 267 8.0 17.7 0.00 0.00 0.00 70 1011.5
20260904230057 23 202 8.0 20.9 0.00 0.00 0.00 71 1011.6
20260904225555 23 166 6.4 20.9 0.00 0.00 0.00 69 1011.6
20260904225055 23 204 8.0 19.3 0.00 0.00 0.00 70 1011.7
20260904224603 23 217 8.0 19.3 0.00 0.00 0.00 70 1011.8
20260904224055 23 289 6.4 20.9 0.00 0.00 0.00 70 1011.7
20260904223556 23 212 6.4 20.9 0.00 0.00 0.00 70 1011.7
20260904223103 23 264 11.3 20.9 0.00 0.00 0.00 71 1011.9
20260904222555 23 273 9.7 19.3 0.00 0.00 0.00 71 1011.8
20260904222055 23 188 6.4 19.3 0.00 0.00 0.00 72 1011.8
20260904221603 23 276 6.4 20.9 0.00 0.00 0.00 71 1011.8
20260904221057 23 255 8.0 20.9 0.00 0.00 0.00 71 1011.8
20260904220556 23 180 8.0 20.9 0.00 0.00 0.00 69 1011.9
20260904220112 23 197 9.7 20.9 0.00 0.00 0.00 70 1011.9
20260904215556 23 223 11.3 22.5 0.00 0.00 0.00 70 1011.9
20260904215059 23 202 6.4 22.5 0.00 0.00 0.00 72 1011.9
20260904214602 23 260 9.7 22.5 0.00 0.00 0.00 70 1011.9
20260904214056 23 284 6.4 19.3 0.00 0.00 0.00 72 1012.0
20260904213557 23 229 11.3 22.5 0.00 0.00 0.00 70 1012.0
20260904213105 23 252 6.4 22.5 0.00 0.00 0.00 70 1012.1
20260904212556 23 195 6.4 22.5 0.00 0.00 0.00 70 1012.0
20260904212055 24 200 9.7 19.3 0.00 0.00 0.00 69 1012.1
20260904211609 24 142 6.4 17.7 0.00 0.00 0.00 69 1012.1
20260904211055 24 198 6.4 17.7 0.00 0.00 0.00 69 1012.2
20260904210555 23 257 8.0 17.7 0.00 0.00 0.00 68 1012.0
20260904210114 23 192 6.4 16.1 0.00 0.00 0.00 70 1012.1
20260904205556 23 186 6.4 20.9 0.00 0.00 0.00 69 1012.1
20260904205056 23 188 6.4 20.9 0.00 0.00 0.00 68 1012.2
20260904204608 23 292 6.4 16.1 0.00 0.00 0.00 69 1012.1
20260904204056 23 205 6.4 19.3 0.00 0.00 0.00 68 1012.0
20260904203557 23 153 9.7 19.3 0.00 0.00 0.00 68 1012.1
20260904203102 23 202 6.4 19.3 0.00 0.00 0.00 68 1011.9
20260904202556 23 205 9.7 17.7 0.00 0.00 0.00 67 1012.1
20260904202055 23 208 8.0 17.7 0.00 0.00 0.00 67 1012.3
20260904201622 24 175 3.2 22.5 0.00 0.00 0.00 67 1012.4
20260904201055 23 189 6.4 22.5 0.00 0.00 0.00 67 1012.4
20260904200557 23 181 8.0 14.5 0.00 0.00 0.00 66 1012.3
20260904200129 23 171 4.8 20.9 0.00 0.00 0.00 66 1012.4
20260904195555 23 173 6.4 20.9 0.00 0.00 0.00 66 1012.4
20260904195059 23 153 4.8 14.5 0.00 0.00 0.00 66 1012.4
20260904194636 23 176 6.4 14.5 0.00 0.00 0.00 67 1012.5
20260904194056 23 194 6.4 17.7 0.00 0.00 0.00 66 1012.6
20260904193556 23 298 8.0 17.7 0.00 0.00 0.00 67 1012.6
20260904193119 23 166 6.4 17.7 0.00 0.00 0.00 66 1012.8
20260904192556 24 162 6.4 16.1 0.00 0.00 0.00 66 1012.8
20260904192059 24 218 1.6 12.9 0.00 0.00 0.00 65 1012.7
20260904191624 24 263 3.2 12.9 0.00 0.00 0.00 64 1012.9
20260904191058 24 138 3.2 8.0 0.00 0.00 0.00 65 1012.9
20260904190556 23 144 1.6 12.9 0.00 0.00 0.00 66 1012.9
20260904190108 23 233 3.2 12.9 0.00 0.00 0.00 65 1013.1
20260904185557 24 0 3.2 9.7 0.00 0.00 0.00 65 1013.1
20260904185056 24 125 1.6 9.7 0.00 0.00 0.00 65 1013.0
20260904184614 23 153 3.2 9.7 0.00 0.00 0.00 67 1013.1
20260904184058 23 0 3.2 9.7 0.00 0.00 0.00 68 1013.2
20260904183556 23 189 0.0 14.5 0.00 0.00 0.00 68 1013.2
20260904183101 23 0 4.8 14.5 0.00 0.00 0.00 68 1013.1
20260904182555 23 163 6.4 14.5 0.00 0.00 0.00 68 1013.2
20260904182055 23 188 1.6 14.5 0.00 0.00 0.00 70 1013.2
20260904181607 22 170 4.8 14.5 0.00 0.00 0.00 71 1013.3
20260904181056 22 210 3.2 9.7 0.00 0.00 0.00 72 1013.3
20260904180556 22 273 3.2 12.9 0.00 0.00 0.00 70 1013.4
20260904180059 22 256 4.8 19.3 0.00 0.00 0.00 71 1013.3
20260904175555 22 198 3.2 19.3 0.00 0.00 0.00 71 1013.4
20260904175055 22 186 4.8 9.7 0.00 0.00 0.00 72 1013.4
20260904174608 22 292 1.6 9.7 0.00 0.00 0.00 72 1013.4
20260904174056 22 221 3.2 9.7 0.00 0.00 0.00 73 1013.4
20260904173556 22 0 3.2 9.7 0.00 0.00 0.00 71 1013.3
20260904173112 22 190 1.6 9.7 0.00 0.00 0.00 71 1013.2
20260904172556 22 134 3.2 9.7 0.00 0.00 0.00 70 1013.2
20260904172056 22 103 1.6 9.7 0.00 0.00 0.00 72 1013.2
20260904171558 22 0 3.2 9.7 0.00 0.00 0.00 72 1013.2
20260904171055 22 0 4.8 9.7 0.00 0.00 0.00 72 1013.1
20260904170558 22 188 0.0 8.0 0.00 0.00 0.00 72 1013.2
20260904170110 21 0 1.6 12.9 0.00 0.00 0.00 74 1013.1
20260904165556 21 212 4.8 12.9 0.00 0.00 0.00 73 1013.1
20260904165055 21 181 4.8 11.3 0.00 0.00 0.00 73 1013.0
20260904164606 21 259 3.2 8.0 0.00 0.00 0.00 72 1012.9
20260904164059 21 180 1.6 8.0 0.00 0.00 0.00 73 1012.8
20260904163556 21 0 1.6 8.0 0.00 0.00 0.00 73 1012.8
20260904163101 21 173 1.6 4.8 0.00 0.00 0.00 74 1012.8
20260904162556 21 0 0.0 6.4 0.00 0.00 0.00 76 1012.7
20260904162055 20 290 0.0 6.4 0.00 0.00 0.00 80 1012.7
20260904161600 20 44 1.6 6.4 0.00 0.00 0.00 81 1012.8
20260904161055 20 0 1.6 6.4 0.00 0.00 0.00 82 1012.7
20260904160555 20 0 0.0 3.2 0.00 0.00 0.00 82 1012.7
20260904160106 19 55 0.0 3.2 0.00 0.00 0.00 82 1012.7
20260904155556 19 0 0.0 4.8 0.00 0.00 0.00 83 1012.6
20260904155056 19 111 0.0 6.4 0.00 0.00 0.00 82 1012.7
20260904154621 20 110 0.0 8.0 0.00 0.00 0.00 82 1012.6
20260904154056 20 101 3.2 8.0 0.00 0.00 0.00 81 1012.7
20260904153556 20 0 1.6 8.0 0.00 0.00 0.00 81 1012.7
20260904153102 20 65 3.2 6.4 0.00 0.00 0.00 82 1012.7
20260904152555 20 58 1.6 6.4 0.00 0.00 0.00 83 1012.7
20260904152057 20 0 0.0 0.0 0.00 0.00 0.00 83 1012.7
20260904151609 20 0 0.0 0.0 0.00 0.00 0.00 84 1012.5
20260904151055 19 0 0.0 0.0 0.00 0.00 0.00 85 1012.6
20260904150555 19 0 0.0 0.0 0.00 0.00 0.00 86 1012.5
20260904150104 18 0 0.0 0.0 0.00 0.00 0.00 87 1012.5
20260904145556 18 0 0.0 0.0 0.00 0.00 0.00 87 1012.4
20260904145056 18 0 0.0 0.0 0.00 0.00 0.00 88 1012.4
20260904144604 18 0 0.0 0.0 0.00 0.00 0.00 89 1012.4
20260904144100 17 0 0.0 0.0 0.00 0.00 0.00 90 1012.4
20260904143558 17 0 0.0 0.0 0.00 0.00 0.00 90 1012.3
20260904143100 17 0 0.0 0.0 0.00 0.00 0.00 90 1012.2
20260904142556 17 0 0.0 0.0 0.00 0.00 0.00 91 1012.1
20260904142055 17 0 0.0 0.0 0.00 0.00 0.00 91 1012.2
20260904141624 17 0 0.0 0.0 0.00 0.00 0.00 91 1012.2
20260904141056 17 0 0.0 0.0 0.00 0.00 0.00 91 1012.1
20260904140555 17 0 0.0 0.0 0.00 0.00 0.00 91 1012.2
20260904140110 16 0 0.0 0.0 0.00 0.00 0.00 91 1012.1
20260904135556 16 0 0.0 0.0 0.00 0.00 0.00 91 1012.0
20260904135057 16 0 0.0 0.0 0.00 0.00 0.00 91 1011.9
20260904134620 16 0 0.0 0.0 0.00 0.00 0.00 91 1011.9
20260904134056 16 0 0.0 0.0 0.00 0.00 0.00 91 1011.9
20260904133556 16 0 0.0 0.0 0.00 0.00 0.00 91 1011.8
20260904133114 16 0 0.0 0.0 0.00 0.00 0.00 91 1011.7
20260904132556 16 0 0.0 0.0 0.00 0.00 0.00 91 1011.7
20260904132056 16 0 0.0 0.0 0.00 0.00 0.00 91 1011.7
20260904131615 17 0 0.0 0.0 0.00 0.00 0.00 91 1011.7
20260904131056 17 0 0.0 0.0 0.00 0.00 0.00 91 1011.7
20260904130555 17 0 0.0 0.0 0.00 0.00 0.00 91 1011.9
20260904130105 17 0 0.0 0.0 0.00 0.00 0.00 91 1011.7
20260904125559 17 0 0.0 0.0 0.00 0.00 0.00 91 1011.7
20260904125056 17 0 0.0 0.0 0.00 0.00 0.00 91 1011.6
20260904124602 17 0 0.0 0.0 0.00 0.00 0.00 91 1011.6
20260904124056 17 0 0.0 0.0 0.00 0.00 0.00 91 1011.6
20260904123556 16 0 0.0 0.0 0.00 0.00 0.00 91 1011.6
20260904123128 17 0 0.0 0.0 0.00 0.00 0.00 91 1011.6
20260904122556 16 0 0.0 0.0 0.00 0.00 0.00 91 1011.5
20260904122056 16 0 0.0 0.0 0.00 0.00 0.00 91 1011.4
20260904121559 16 0 0.0 0.0 0.00 0.00 0.00 91 1011.4
20260904121056 16 0 0.0 0.0 0.00 0.00 0.00 91 1011.3
20260904120555 16 0 0.0 0.0 0.00 0.00 0.00 91 1011.4
20260904120100 17 0 0.0 0.0 0.00 0.00 0.00 91 1011.4
20260904115555 17 0 0.0 0.0 0.00 0.00 0.00 91 1011.4
20260904115055 17 0 0.0 0.0 0.00 0.00 0.00 91 1011.4
20260904114605 17 0 0.0 0.0 0.00 0.00 0.00 91 1011.4
20260904114056 17 0 0.0 0.0 0.00 0.00 0.00 91 1011.4
20260904113556 17 0 0.0 0.0 0.00 0.00 0.00 91 1011.4
20260904113105 16 0 0.0 0.0 0.00 0.00 0.00 91 1011.4
20260904112557 16 0 0.0 0.0 0.00 0.00 0.00 91 1011.4
20260904112056 16 0 0.0 0.0 0.00 0.00 0.00 91 1011.4
20260904111600 16 0 0.0 0.0 0.00 0.00 0.00 90 1011.4
20260904111054 16 0 0.0 0.0 0.00 0.00 0.00 90 1011.3
20260904110555 16 0 0.0 0.0 0.00 0.00 0.00 91 1011.4
20260904110116 16 0 0.0 0.0 0.00 0.00 0.00 91 1011.5
20260904105554 16 0 0.0 0.0 0.00 0.00 0.00 91 1011.5
20260904105052 16 0 0.0 0.0 0.00 0.00 0.00 91 1011.4
20260904104557 16 0 0.0 0.0 0.00 0.00 0.00 91 1011.4
20260904104053 16 0 0.0 0.0 0.00 0.00 0.00 91 1011.4
20260904103551 16 0 0.0 0.0 0.00 0.00 0.00 91 1011.4
20260904103107 16 0 0.0 0.0 0.00 0.00 0.00 90 1011.4
20260904102554 16 0 0.0 0.0 0.00 0.00 0.00 90 1011.4
20260904102050 16 0 0.0 0.0 0.00 0.00 0.00 90 1011.5
20260904101601 16 0 0.0 0.0 0.00 0.00 0.00 90 1011.3
20260904101051 16 0 0.0 0.0 0.00 0.00 0.00 90 1011.4
20260904100551 16 0 0.0 0.0 0.00 0.00 0.00 90 1011.4
20260904100104 16 0 0.0 0.0 0.00 0.00 0.00 90 1011.4
20260904095555 16 0 0.0 0.0 0.00 0.00 0.00 90 1011.4
20260904095052 16 0 0.0 0.0 0.00 0.00 0.00 90 1011.3
20260904094557 16 0 0.0 0.0 0.00 0.00 0.00 90 1011.4
20260904094051 16 0 0.0 0.0 0.00 0.00 0.00 90 1011.4
20260904093556 17 0 0.0 0.0 0.00 0.00 0.00 90 1011.4
20260904093103 16 0 0.0 0.0 0.00 0.00 0.00 90 1011.4
20260904092551 16 0 0.0 0.0 0.00 0.00 0.00 90 1011.4
20260904092051 17 0 0.0 0.0 0.00 0.00 0.00 90 1011.3
20260904091559 17 0 0.0 0.0 0.00 0.00 0.00 90 1011.3
20260904091053 17 0 0.0 0.0 0.00 0.00 0.00 90 1011.4
20260904090550 17 0 0.0 0.0 0.00 0.00 0.00 90 1011.4
20260904090057 17 0 0.0 0.0 0.00 0.00 0.00 90 1011.4
20260904085554 17 0 0.0 0.0 0.00 0.00 0.00 90 1011.3
20260904085057 17 0 0.0 0.0 0.00 0.00 0.00 89 1011.4
20260904084606 17 0 0.0 0.0 0.00 0.00 0.00 89 1011.4
20260904084051 17 0 0.0 0.0 0.00 0.00 0.00 89 1011.5
20260904083551 17 0 0.0 0.0 0.00 0.00 0.00 90 1011.6
20260904083101 17 0 0.0 0.0 0.00 0.00 0.00 90 1011.6
20260904082553 17 0 0.0 0.0 0.00 0.00 0.00 89 1011.5
20260904082051 17 0 0.0 0.0 0.00 0.00 0.00 89 1011.6
20260904081558 17 0 0.0 0.0 0.00 0.00 0.00 89 1011.5
20260904081050 17 0 0.0 1.6 0.00 0.00 0.00 89 1011.6
20260904080550 17 0 0.0 3.2 0.00 0.00 0.00 89 1011.6
20260904080117 17 337 0.0 4.8 0.00 0.00 0.00 89 1011.7
20260904075553 17 324 0.0 4.8 0.00 0.00 0.00 89 1011.7
20260904075051 17 0 1.6 4.8 0.00 0.00 0.00 88 1011.7
20260904074604 17 0 0.0 0.0 0.00 0.00 0.00 88 1011.8
20260904074051 17 0 0.0 0.0 0.00 0.00 0.00 88 1011.8
20260904073554 17 0 0.0 0.0 0.00 0.00 0.00 88 1011.7
20260904073101 17 0 0.0 0.0 0.00 0.00 0.00 88 1011.7
20260904072550 17 0 0.0 0.0 0.00 0.00 0.00 88 1011.6
20260904072050 17 0 0.0 0.0 0.00 0.00 0.00 87 1011.5
20260904071600 17 0 0.0 0.0 0.00 0.00 0.00 88 1011.6
20260904071057 17 0 0.0 0.0 0.00 0.00 0.00 88 1011.5
20260904070555 17 0 0.0 0.0 0.00 0.00 0.00 88 1011.5
20260904065551 17 0 0.0 0.0 0.00 0.00 0.00 87 1011.4
20260904065051 17 0 0.0 0.0 0.00 0.00 0.00 87 1011.5
20260904064621 17 0 0.0 0.0 0.00 0.00 0.00 88 1011.5
20260904064051 17 0 0.0 0.0 0.00 0.00 0.00 87 1011.4
20260904063551 17 0 0.0 0.0 0.00 0.00 0.00 87 1011.4
20260904063108 17 0 0.0 0.0 0.00 0.00 0.00 87 1011.3
20260904062554 17 0 0.0 0.0 0.00 0.00 0.00 87 1011.3
20260904062050 17 0 0.0 0.0 0.00 0.00 0.00 87 1011.3
20260904061557 17 0 0.0 0.0 0.00 0.00 0.00 87 1011.3
20260904061058 17 0 0.0 0.0 0.00 0.00 0.00 87 1011.3
20260904060555 17 0 0.0 0.0 0.00 0.00 0.00 87 1011.2
20260904060110 17 0 0.0 1.6 0.00 0.00 0.00 87 1011.2
20260904055551 18 0 0.0 1.6 0.00 0.00 0.00 87 1011.2
20260904055051 18 0 0.0 1.6 0.00 0.00 0.00 87 1011.2
20260904054604 18 0 0.0 0.0 0.00 0.00 0.00 87 1011.3
20260904054054 18 0 0.0 0.0 0.00 0.00 0.00 87 1011.2
20260904053551 18 0 0.0 0.0 0.00 0.00 0.00 87 1011.3
20260904053105 18 0 0.0 3.2 0.00 0.00 0.00 87 1011.2
20260904052553 18 0 0.0 3.2 0.00 0.00 0.00 86 1011.3
20260904052052 18 19 0.0 3.2 0.00 0.00 0.00 86 1011.4
20260904051558 18 0 0.0 3.2 0.00 0.00 0.00 86 1011.4
20260904051052 18 24 0.0 3.2 0.00 0.00 0.00 86 1011.4
20260904050551 18 0 0.0 3.2 0.00 0.00 0.00 86 1011.4
20260904050148 18 0 0.0 3.2 0.00 0.00 0.00 86 1011.3
20260904045556 18 0 0.0 3.2 0.00 0.00 0.00 85 1011.3
20260904045057 18 0 0.0 4.8 0.00 0.00 0.00 85 1011.3
20260904044605 18 0 0.0 4.8 0.00 0.00 0.00 85 1011.4
20260904044055 18 352 0.0 0.0 0.00 0.00 0.00 85 1011.3
20260904043556 18 0 0.0 0.0 0.00 0.00 0.00 84 1011.2
20260904043108 18 0 0.0 0.0 0.00 0.00 0.00 84 1011.0
20260904042556 18 0 0.0 3.2 0.00 0.00 0.00 84 1011.0
20260904042058 18 0 0.0 3.2 0.00 0.00 0.00 84 1011.1
20260904041609 19 0 0.0 3.2 0.00 0.00 0.00 84 1011.1
20260904041055 19 0 0.0 4.8 0.00 0.00 0.00 83 1011.0
20260904040555 19 0 0.0 4.8 0.00 0.00 0.00 83 1010.9
20260904040110 19 0 0.0 4.8 0.00 0.00 0.00 83 1011.1
20260904035557 19 0 0.0 3.2 0.00 0.00 0.00 83 1011.1
20260904035056 19 0 0.0 6.4 0.00 0.00 0.00 83 1011.0
20260904034614 19 268 0.0 6.4 0.00 0.00 0.00 83 1011.0
20260904034057 19 270 0.0 6.4 0.00 0.00 0.00 83 1010.9
20260904033555 19 203 0.0 6.4 0.00 0.00 0.00 83 1010.9
20260904033100 19 292 0.0 6.4 0.00 0.00 0.00 83 1010.8
20260904032555 19 180 3.2 6.4 0.00 0.00 0.00 83 1010.8